Location: Niedergestelen
(46.3129°N, 7.7822°E)
Time: 18:58:37
(UTC+00:00)

Okean-O - Pass Details

Date: 01 December 2020
Orbit: 639 x 640 km, 98.2° (Epoch: 27 January)

Event Time Altitude Azimuth Distance (km) Brightness Sun altitude
Rises 16:22:44 0° 109° (ESE) 2,940 5.6 -6.7°
Reaches altitude 10° 16:26:21 10° 78° (ENE) 2,037 4.6 -7.3°
Maximum altitude 16:27:54 12° 57° (ENE) 1,925 4.4 -7.5°
Drops below altitude 10° 16:29:28 10° 36° (NE) 2,042 4.7 -7.8°
Sets 16:33:05 0° 5° (N) 2,958 5.8 -8.3°
